Home   Weather   Greece   Lesbos   Past weeks
Flag for Greece

Past Weather in Lesbos, Greece — September 2020

Currently: 79 °F. Clear. (Weather station: Mytilini Airport, Greece). See more current weather

September 2020 Weather in Lesbos — Graph

°F

High & Low Weather Summary for September 2020

 TemperatureHumidityPressure
High93 °F (Sep 3, 5:50 pm)89% (Sep 2, 8:20 am)30.07 "Hg (Sep 2, 8:20 am)
Low66 °F (Sep 25, 6:50 am)31% (Sep 29, 3:50 pm)29.59 "Hg (Sep 26, 5:20 pm)
Average78 °F66%29.91 "Hg
* Reported Sep 1 12:50 am — Sep 30 11:50 pm, Lesbos. Weather by CustomWeather, © 2022

Note: Actual official high and low records may vary slightly from our data, if they occured in-between our weather recording intervals... More about our weather records

Lesbos Weather History for September 1, 2020

Scroll right to see more
 ConditionsComfort  
Time TempWeatherWind HumidityBarometerVisibility
12:50 am
Tue, Sep 1
81 °FClear.5 mph62%29.74 "Hg10 mi
1:50 am79 °FClear.7 mph61%29.74 "Hg10 mi
2:50 am77 °FClear.8 mph65%29.74 "Hg10 mi
5:50 am75 °FClear.12 mph65%29.71 "Hg10 mi
6:20 am75 °FClear.12 mph65%29.71 "Hg10 mi
6:50 am73 °FSunny.8 mph74%29.71 "Hg10 mi
7:20 am73 °FSunny.8 mph74%29.71 "Hg10 mi
7:50 am75 °FSunny.7 mph69%29.71 "Hg10 mi
8:20 am75 °FSunny.7 mph69%29.71 "Hg10 mi
8:50 am77 °FSunny.7 mph69%29.71 "Hg10 mi
9:20 am77 °FSunny.7 mph69%29.71 "Hg10 mi
9:50 am77 °FSunny.7 mph69%29.71 "Hg10 mi
10:20 am77 °FSunny.7 mph69%29.71 "Hg10 mi
10:50 am77 °FSunny.9 mph69%29.71 "Hg10 mi
11:50 am79 °FSunny.9 mph70%29.71 "Hg10 mi
12:20 pm79 °FSunny.9 mph70%29.71 "Hg10 mi
12:50 pm79 °FSunny.9 mph70%29.71 "Hg10 mi
1:20 pm81 °FSunny.7 mph66%29.71 "Hg10 mi
1:50 pm82 °FSunny.8 mph58%29.71 "Hg10 mi
2:20 pm82 °FSunny.7 mph58%29.68 "Hg10 mi
2:50 pm84 °FSunny.5 mph55%29.68 "Hg10 mi
3:20 pm84 °FSunny.3 mph55%29.68 "Hg10 mi
3:50 pm86 °FSunny.3 mph52%29.65 "Hg10 mi
4:20 pm86 °FSunny.3 mph52%29.65 "Hg10 mi
4:50 pm88 °FSunny.3 mph59%29.65 "Hg10 mi
5:20 pm88 °FSunny.3 mph59%29.65 "Hg10 mi
5:50 pm88 °FSunny.3 mph59%29.65 "Hg10 mi
6:20 pm88 °FSunny.3 mph59%29.65 "Hg10 mi
6:50 pm88 °FSunny.3 mph49%29.65 "Hg10 mi
7:20 pm88 °FSunny.3 mph49%29.65 "Hg10 mi
7:50 pm86 °FClear.3 mph52%29.65 "Hg10 mi
8:20 pm84 °FClear.3 mph55%29.65 "Hg10 mi
8:50 pm82 °FClear.3 mph51%29.65 "Hg10 mi
9:20 pm82 °FClear.3 mph51%29.65 "Hg10 mi
9:50 pm82 °FClear.3 mph51%29.65 "Hg10 mi
10:20 pm82 °FClear.3 mph51%29.65 "Hg10 mi
11:20 pm81 °FClear.3 mph54%29.65 "Hg10 mi
11:50 pm81 °FClear.3 mph58%29.71 "Hg10 mi
Weather by CustomWeather, © 2022

See weather overview